Grove City, OH

12:53 AM EST on February 10, 2016 (GMT -0500)
Bolton

Weather History for KTZR - October, 2012

Change the Weather History Date:

Thursday, October 18, 2012

  Actual Average Record
Temperature  
Mean Temperature 54 °F -  
Max Temperature 62 °F 62 °F 75 °F (2007)
Min Temperature 46 °F 43 °F 25 °F (2015)
Degree Days  
Heating Degree Days 11    
Growing Degree Days 4 (Base 50)    
Moisture  
Dew Point 42 °F    
Average Humidity 57    
Maximum Humidity 82    
Minimum Humidity 30    
Precipitation  
Precipitation 0.00 in - - ()
Sea Level Pressure  
Sea Level Pressure 29.62 in    
Wind  
Wind Speed 11 mph (SSE)    
Max Wind Speed 21 mph    
Max Gust Speed 33 mph    
Visibility 10 miles    
Events Rain    
Averages and records for this station are not official NWS values.
T = Trace of Precipitation, MM = Missing Value Source: NWS Daily Summary

Daily Weather History Graph

Daily Weather History Graph

Search for Another Location

Airport or City:

Trip Planner

Search our weather history database for the weather conditions in past years. The results will help you decide how hot, cold, wet, or windy it might be!

Date:

Astronomy

Oct. 18, 2012 Rise Set
Actual Time 7:46 AM EDT 6:47 PM EDT
Civil Twilight 7:19 AM EDT 7:15 PM EDT
Nautical Twilight 6:47 AM EDT 7:46 PM EDT
Astronomical Twilight 6:16 AM EDT 8:18 PM EDT
Moon 11:27 AM EDT (10/18) 9:21 PM EDT (10/18)
Length of Visible Light 11h 56m
Length of Day
11h 01m
Waxing Crescent, 14% of the Moon is Illuminated
Oct 18
Waxing Crescent
Oct 21
First Quarter
Oct 29
Full
Nov 6
Last Quarter
Nov 13
New

Hourly Weather History & Observations

Time (EDT) Temp. Windchill Dew Point Humidity Pressure Visibility Wind Dir Wind Speed Gust Speed Precip Events Conditions
12:15 AM 60.8 °F - 47.5 °F 62% 29.64 in 10.0 mi SE 8.1 mph - N/A   Clear
12:35 AM 60.4 °F - 47.3 °F 62% 29.63 in 10.0 mi SE 6.9 mph - N/A   Mostly Cloudy
12:55 AM 61.3 °F - 46.4 °F 58% 29.63 in 10.0 mi SSE 6.9 mph - N/A   Mostly Cloudy
1:15 AM 60.8 °F - 45.9 °F 58% 29.62 in 10.0 mi SSE 9.2 mph - N/A   Scattered Clouds
1:35 AM 61.0 °F - 45.5 °F 57% 29.62 in 10.0 mi SE 9.2 mph - N/A   Mostly Cloudy
1:55 AM 60.3 °F - 44.8 °F 57% 29.61 in 10.0 mi SE 11.5 mph - N/A   Scattered Clouds
2:15 AM 60.8 °F - 44.1 °F 54% 29.60 in 10.0 mi SE 13.8 mph 18.4 mph N/A   Clear
2:35 AM 60.8 °F - 43.7 °F 53% 29.60 in 10.0 mi SE 8.1 mph - N/A   Clear
2:55 AM 60.3 °F - 43.7 °F 54% 29.59 in 10.0 mi SE 10.4 mph 17.3 mph N/A   Clear
3:15 AM 59.9 °F - 43.9 °F 55% 29.58 in 10.0 mi SE 10.4 mph 19.6 mph N/A   Clear
3:35 AM 59.9 °F - 44.2 °F 56% 29.59 in 10.0 mi SSE 9.2 mph 17.3 mph N/A   Clear
3:55 AM 60.3 °F - 44.6 °F 56% 29.59 in 10.0 mi SSE 12.7 mph 19.6 mph N/A   Clear
4:15 AM 59.5 °F - 44.6 °F 58% 29.58 in 10.0 mi SSE 13.8 mph 18.4 mph N/A   Clear
4:35 AM 59.5 °F - 44.6 °F 58% 29.57 in 10.0 mi SE 13.8 mph - N/A   Scattered Clouds
4:55 AM 59.9 °F - 44.6 °F 57% 29.56 in 10.0 mi SE 15.0 mph 18.4 mph N/A   Mostly Cloudy
5:15 AM 59.2 °F - 44.2 °F 58% 29.56 in 10.0 mi SE 15.0 mph 19.6 mph N/A   Scattered Clouds
5:35 AM 59.0 °F - 44.2 °F 58% 29.56 in 10.0 mi SSE 13.8 mph 20.7 mph N/A   Scattered Clouds
5:55 AM 59.0 °F - 44.4 °F 58% 29.56 in 10.0 mi SSE 15.0 mph 20.7 mph N/A   Mostly Cloudy
6:15 AM 59.0 °F - 44.6 °F 59% 29.56 in 10.0 mi SSE 17.3 mph 21.9 mph N/A   Mostly Cloudy
6:35 AM 59.0 °F - 44.6 °F 59% 29.56 in 10.0 mi SSE 17.3 mph - N/A   Mostly Cloudy
6:55 AM 59.4 °F - 45.0 °F 59% 29.54 in 10.0 mi SSE 16.1 mph 23.0 mph N/A   Mostly Cloudy
7:22 AM 59.0 °F - 46.4 °F 63% 29.52 in 10.0 mi SE 13.8 mph 24.2 mph N/A   Mostly Cloudy
7:35 AM 58.8 °F - 46.2 °F 63% 29.54 in 10.0 mi SSE 15.0 mph 20.7 mph N/A   Overcast
7:50 AM 57.2 °F - 46.4 °F 67% 29.54 in 10.0 mi SSE 15.0 mph 23.0 mph N/A   Mostly Cloudy
7:55 AM 58.1 °F - 46.8 °F 66% 29.54 in 10.0 mi SSE 15.0 mph 19.6 mph N/A   Mostly Cloudy
8:15 AM 59.0 °F - 47.3 °F 65% 29.55 in 10.0 mi South 17.3 mph 20.7 mph N/A   Overcast
8:50 AM 60.8 °F - 48.2 °F 63% 29.56 in 10.0 mi South 20.7 mph 31.1 mph N/A   Overcast
9:50 AM 53.6 °F - 48.2 °F 82% 29.61 in 4.0 mi WSW 19.6 mph 33.4 mph N/A Rain Light Rain
10:50 AM 53.6 °F - 48.2 °F 82% 29.64 in 10.0 mi SW 13.8 mph 23.0 mph N/A   Mostly Cloudy
11:50 AM 55.4 °F - 44.6 °F 67% 29.66 in 10.0 mi SW 15.0 mph 26.5 mph N/A   Scattered Clouds
12:50 PM 59.0 °F - 41.0 °F 51% 29.68 in 10.0 mi SW 18.4 mph 29.9 mph N/A   Scattered Clouds
1:50 PM 60.8 °F - 37.4 °F 42% 29.67 in 10.0 mi SW 17.3 mph 23.0 mph N/A   Scattered Clouds
2:50 PM 62.6 °F - 33.8 °F 34% 29.67 in 10.0 mi WSW 16.1 mph 23.0 mph N/A   Scattered Clouds
3:50 PM 62.6 °F - 32.0 °F 32% 29.67 in 10.0 mi WSW 13.8 mph 23.0 mph N/A   Scattered Clouds
4:50 PM 62.6 °F - 30.2 °F 30% 29.67 in 10.0 mi SW 16.1 mph 23.0 mph N/A   Scattered Clouds
9:15 PM 48.7 °F - 31.8 °F 52% 29.74 in 10.0 mi SSE 4.6 mph - N/A   Clear
9:35 PM 48.4 °F - 31.8 °F 53% 29.74 in 10.0 mi SE 5.8 mph - N/A   Clear
9:55 PM 48.2 °F - 32.0 °F 54% 29.74 in 10.0 mi SE 4.6 mph - N/A   Clear
10:15 PM 46.4 °F 43.5 °F 32.0 °F 57% 29.75 in 10.0 mi SE 5.8 mph - N/A   Clear
10:35 PM 47.3 °F - 32.2 °F 56% 29.74 in 10.0 mi SE 4.6 mph - N/A   Clear
11:15 PM 46.9 °F - 32.0 °F 56% 29.72 in 10.0 mi SE 5.8 mph - N/A   Clear
11:35 PM 46.8 °F - 32.5 °F 58% 29.72 in 10.0 mi SE 5.8 mph - N/A   Clear
11:55 PM 46.2 °F 43.3 °F 33.8 °F 62% 29.71 in 10.0 mi SE 5.8 mph - N/A   Clear